Location: Antist
(43.1184°N, 0.1270°E)
Time: 18:56:40
(UTC+00:00)

Meteor 2-10 Rocket - Pass Details

Date: 19 January 2020
Orbit: 733 x 885 km, 81.2° (Epoch: 16 February)

Event Time Altitude Azimuth Distance (km) Brightness Sun altitude
Rises 18:07:31 0° 358° (N) 3,359 6.7 -13.3°
Reaches altitude 10° 18:10:15 10° 8° (N) 2,396 5.8 -13.8°
Maximum altitude 18:15:01 31° 71° (ENE) 1,345 4.2 -14.6°
Drops below altitude 10° 18:19:35 10° 133° (SE) 2,297 5.7 -15.4°
Sets 18:22:08 0° 144° (SE) 3,198 6.5 -15.9°
